Location: Kielce
(50.8833°N, 20.6167°E)
Time: 10:26:06
(UTC+01:00)

ISS - Visible Passes

Search period start: 04 March 2021 00:00
Search period end: 14 March 2021 00:00
Orbit: 417 x 422 km, 51.6° (Epoch: 04 March)

Date Brightness Start Highest point End Pass type
(mag) Time Alt. Az. Time Alt. Az. Time Alt. Az.
04 Mar -3.7 04:09:46 75° NNE 04:09:46 75° NNE 04:13:04 10° E visible
05 Mar -1.4 03:24:06 24° ENE 03:24:06 24° ENE 03:25:34 10° E visible
05 Mar -3.8 04:57:03 22° W 04:59:04 86° SSW 05:02:27 10° ESE visible
06 Mar -3.9 04:11:24 77° NW 04:11:35 82° NNE 04:14:57 10° E visible
07 Mar -1.7 03:25:47 27° E 03:25:47 27° E 03:27:26 10° E visible
07 Mar -3.5 04:58:44 20° W 05:00:51 54° SSW 05:04:08 10° SE visible
08 Mar -3.9 04:13:10 67° SW 04:13:23 71° SSW 04:16:45 10° ESE visible
09 Mar -1.8 03:27:40 26° ESE 03:27:40 26° ESE 03:29:16 10° ESE visible
09 Mar -2.6 05:00:38 17° W 05:02:28 28° SSW 05:05:24 10° SSE visible
10 Mar -3.1 04:15:14 39° SSW 04:15:14 39° SSW 04:18:14 10° SE visible
11 Mar -1.4 03:29:56 18° SE 03:29:56 18° SE 03:30:55 10° SE visible
11 Mar -1.8 05:02:55 13° WSW 05:03:53 14° SW 05:05:43 10° S visible
12 Mar -1.8 04:17:48 17° S 04:17:48 17° S 04:19:07 10° SSE visible
